Siler City Muni, Siler City,, NC

10:32 PM EDT on April 22, 2018 (GMT -0400)
Siler City Muni, Siler City,

Weather History for K5W8 - February, 2014

Change the Weather History Date:

Monday, February 24, 2014

  Actual Average (KBUY) Record (KBUY)
Temperature  
Mean Temperature 46 °F -  
Max Temperature 59 °F 55 °F 80 °F (2018)
Min Temperature 32 °F 32 °F 13 °F (1967)
Degree Days  
Heating Degree Days 20    
Moisture  
Dew Point 29 °F    
Average Humidity 55    
Maximum Humidity 95    
Minimum Humidity 24    
Precipitation  
Precipitation 0.00 in - - ()
Sea Level Pressure  
Sea Level Pressure 30.03 in    
Wind  
Wind Speed 3 mph (NNW)    
Max Wind Speed 13 mph    
Max Gust Speed 18 mph    
Visibility 10 miles    
Events      
Averages and records for this station are not official NWS values.
T = Trace of Precipitation, MM = Missing Value Source: NWS Daily Summary

Daily Weather History Graph

Daily Weather History Graph

Search for Another Location

Airport or City:

Astronomy

Feb. 24, 2014 Rise Set
Actual Time 6:54 AM EST 6:08 PM EST
Civil Twilight 6:28 AM EST 6:34 PM EST
Nautical Twilight 5:58 AM EST 7:04 PM EST
Astronomical Twilight 5:29 AM EST 7:33 PM EST
Moon 2:45 AM EST (2/24) 1:13 PM EST (2/24)
Length of Visible Light 12h 05m
Length of Day
11h 14m
Waning Crescent, 28% of the Moon is Illuminated
Feb 24
Waning Crescent
Mar 1
New
Mar 8
First Quarter
Mar 16
Full
Mar 23
Last Quarter

Hourly Weather History & Observations

Time (EST) Temp. Windchill Dew Point Humidity Pressure Visibility Wind Dir Wind Speed Gust Speed Precip Events Conditions
12:15 AM 44.8 °F - 39.4 °F 81% 29.89 in 10.0 mi Calm Calm - N/A   Clear
12:35 AM 43.5 °F - 39.6 °F 86% 29.89 in 10.0 mi Calm Calm - N/A   Clear
12:55 AM 41.7 °F - 39.2 °F 91% 29.89 in 10.0 mi Calm Calm - N/A   Clear
1:15 AM 41.5 °F - 38.7 °F 89% 29.89 in 10.0 mi Calm Calm - N/A   Clear
1:35 AM 41.0 °F - 39.7 °F 95% 29.89 in 10.0 mi Calm Calm - N/A   Clear
1:55 AM 40.6 °F - 39.0 °F 94% 29.90 in 10.0 mi Calm Calm - N/A   Clear
2:15 AM 44.1 °F 42.5 °F 41.4 °F 90% 29.91 in 10.0 mi North 3.5 mph - N/A   Clear
2:30 AM 42.1 °F - 39.6 °F 91% 29.90 in 10.0 mi Calm Calm - N/A   Clear
2:55 AM 45.9 °F 44.6 °F 38.3 °F 75% 29.91 in 10.0 mi North 3.5 mph - N/A   Clear
3:15 AM 42.6 °F - 36.9 °F 80% 29.91 in 10.0 mi Calm Calm - N/A   Clear
3:35 AM 40.8 °F - 36.7 °F 85% 29.93 in 10.0 mi Calm Calm - N/A   Clear
3:55 AM 40.1 °F - 37.4 °F 90% 29.93 in 10.0 mi Calm Calm - N/A   Clear
4:15 AM 39.2 °F - 37.0 °F 92% 29.94 in 10.0 mi Calm Calm - N/A   Clear
4:35 AM 37.6 °F - 34.2 °F 87% 29.95 in 10.0 mi Calm Calm - N/A   Clear
4:55 AM 40.5 °F 38.4 °F 34.0 °F 78% 29.96 in 10.0 mi North 3.5 mph - N/A   Clear
5:15 AM 40.6 °F - 33.4 °F 75% 29.98 in 10.0 mi Calm Calm - N/A   Clear
5:35 AM 36.9 °F 34.3 °F 33.4 °F 87% 29.99 in 10.0 mi North 3.5 mph - N/A   Clear
5:55 AM 36.7 °F 34.1 °F 33.4 °F 88% 30.00 in 10.0 mi North 3.5 mph - N/A   Clear
6:15 AM 39.6 °F 37.4 °F 32.5 °F 76% 30.01 in 10.0 mi North 3.5 mph - N/A   Clear
6:35 AM 37.9 °F 35.5 °F 32.5 °F 81% 30.01 in 10.0 mi North 3.5 mph - N/A   Clear
6:55 AM 41.5 °F 39.6 °F 32.9 °F 71% 30.02 in 10.0 mi North 3.5 mph - N/A   Clear
7:15 AM 42.3 °F - 33.3 °F 70% 30.03 in 10.0 mi Calm Calm - N/A   Clear
7:35 AM 43.7 °F - 33.8 °F 68% 30.04 in 10.0 mi Calm Calm - N/A   Clear
7:55 AM 44.8 °F 43.3 °F 34.9 °F 68% 30.04 in 10.0 mi North 3.5 mph - N/A   Clear
8:15 AM 46.4 °F 43.5 °F 35.1 °F 65% 30.06 in 10.0 mi NNE 5.8 mph - N/A   Clear
8:35 AM 47.5 °F - 34.9 °F 62% 30.06 in 10.0 mi North 5.8 mph - N/A   Clear
8:55 AM 48.4 °F - 34.7 °F 59% 30.07 in 10.0 mi North 6.9 mph - N/A   Clear
9:15 AM 49.1 °F - 35.1 °F 58% 30.08 in 10.0 mi North 5.8 mph - N/A   Clear
9:35 AM 50.0 °F - 34.5 °F 55% 30.09 in 10.0 mi North 8.1 mph - N/A   Clear
9:55 AM 50.9 °F - 33.8 °F 52% 30.09 in 10.0 mi North 5.8 mph - N/A   Clear
10:15 AM 50.9 °F - 28.4 °F 42% 30.09 in 10.0 mi NNW 6.9 mph 16.1 mph N/A   Clear
10:35 AM 52.0 °F - 28.4 °F 40% 30.09 in 10.0 mi North 11.5 mph - N/A   Clear
10:55 AM 52.7 °F - 26.8 °F 37% 30.09 in 10.0 mi NNW 12.7 mph 17.3 mph N/A   Clear
11:15 AM 53.4 °F - 25.5 °F 34% 30.10 in 10.0 mi WNW 8.1 mph 16.1 mph N/A   Clear
11:35 AM 54.0 °F - 25.7 °F 34% 30.09 in 10.0 mi WNW 9.2 mph 16.1 mph N/A   Clear
11:55 AM 55.4 °F - 25.0 °F 31% 30.08 in 10.0 mi NW 6.9 mph - N/A   Clear
12:15 PM 55.2 °F - 23.9 °F 30% 30.06 in 10.0 mi NW 5.8 mph - N/A   Clear
12:35 PM 56.8 °F - 24.4 °F 29% 30.04 in 10.0 mi NW 6.9 mph - N/A   Clear
12:55 PM 57.0 °F - 23.2 °F 27% 30.04 in 10.0 mi North 8.1 mph - N/A   Clear
1:15 PM 57.6 °F - 22.3 °F 26% 30.03 in 10.0 mi NW 6.9 mph 18.4 mph N/A   Clear
1:35 PM 58.1 °F - 22.5 °F 25% 30.03 in 10.0 mi North 8.1 mph - N/A   Clear
1:55 PM 57.7 °F - 21.7 °F 25% 30.03 in 10.0 mi NW 8.1 mph - N/A   Clear
2:15 PM 57.7 °F - 21.4 °F 24% 30.03 in 10.0 mi NW 10.4 mph - N/A   Clear
2:35 PM 59.2 °F - 22.5 °F 24% 30.03 in 10.0 mi WNW 9.2 mph - N/A   Clear
2:50 PM 58.6 °F - 21.7 °F 24% 30.03 in 10.0 mi NW 10.4 mph - N/A   Clear
3:15 PM 58.1 °F - 21.2 °F 24% 30.03 in 10.0 mi WNW 5.8 mph 16.1 mph N/A   Clear
3:35 PM 59.0 °F - 22.5 °F 24% 30.04 in 10.0 mi West 6.9 mph - N/A   Clear
3:55 PM 59.0 °F - 22.1 °F 24% 30.04 in 10.0 mi WNW 5.8 mph - N/A   Clear
4:15 PM 59.0 °F - 22.3 °F 24% 30.04 in 10.0 mi NW 6.9 mph - N/A   Clear
4:35 PM 58.5 °F - 22.5 °F 25% 30.04 in 10.0 mi NNW 5.8 mph - N/A   Clear
4:55 PM 58.1 °F - 21.6 °F 24% 30.04 in 10.0 mi NW 4.6 mph - N/A   Clear
5:15 PM 57.7 °F - 21.2 °F 24% 30.05 in 10.0 mi WNW 5.8 mph - N/A   Clear
5:35 PM 57.2 °F - 21.4 °F 25% 30.05 in 10.0 mi NW 3.5 mph - N/A   Clear
5:55 PM 55.0 °F - 22.1 °F 28% 30.06 in 10.0 mi NW 3.5 mph - N/A   Clear
6:15 PM 53.6 °F - 21.7 °F 29% 30.07 in 10.0 mi Calm Calm - N/A   Clear
6:35 PM 46.4 °F - 28.0 °F 49% 30.08 in 10.0 mi Calm Calm - N/A   Clear
6:55 PM 45.9 °F - 26.8 °F 47% 30.09 in 10.0 mi Calm Calm - N/A   Clear
7:15 PM 42.6 °F - 27.3 °F 55% 30.09 in 10.0 mi Calm Calm - N/A   Clear
7:35 PM 43.5 °F 41.9 °F 25.2 °F 48% 30.09 in 10.0 mi North 3.5 mph - N/A   Clear
7:55 PM 45.5 °F 44.2 °F 21.6 °F 39% 30.10 in 10.0 mi NNE 3.5 mph - N/A   Clear
8:15 PM 43.3 °F 41.7 °F 21.9 °F 43% 30.10 in 10.0 mi NNE 3.5 mph - N/A   Clear
8:35 PM 44.4 °F - 21.6 °F 40% 30.11 in 10.0 mi Calm Calm - N/A   Clear
8:55 PM 42.1 °F - 21.7 °F 44% 30.11 in 10.0 mi Calm Calm - N/A   Clear
9:15 PM 39.6 °F - 23.0 °F 52% 30.12 in 10.0 mi Calm Calm - N/A   Clear
9:35 PM 37.8 °F - 24.1 °F 58% 30.12 in 10.0 mi Calm Calm - N/A   Clear
9:55 PM 36.5 °F - 25.2 °F 64% 30.12 in 10.0 mi Calm Calm - N/A   Clear
10:15 PM 35.6 °F - 24.1 °F 63% 30.13 in 10.0 mi Calm Calm - N/A   Clear
10:35 PM 34.7 °F - 23.9 °F 65% 30.14 in 10.0 mi Calm Calm - N/A   Clear
10:55 PM 33.4 °F - 23.9 °F 68% 30.13 in 10.0 mi Calm Calm - N/A   Clear
11:15 PM 32.9 °F - 24.4 °F 71% 30.13 in 10.0 mi Calm Calm - N/A   Clear
11:35 PM 32.5 °F - 24.3 °F 72% 30.13 in 10.0 mi Calm Calm - N/A   Clear
11:55 PM 32.4 °F - 25.2 °F 75% 30.12 in 10.0 mi Calm Calm - N/A   Clear